This demonstration page uses our WeatherBlox Daily Observations layout. Learn more.

Left ArrowRight Arrow

Hourly Observations for September 3, 2018

Temp ( °F °C ) Dew Point ( °F °C ) Humidity (%) Winds ( mph kmh ) Pressure ( in mb ) Visibility ( mi km ) Precip ( " mm )
12:54 am 00:54 Clear with Light Rain N/A N/A N/A SSE 8 13 N/A 10 16 0.02 0.51
1:54 am 01:54 Mostly Cloudy 73 22.8 67 19.4 81 81 NNE 7 11 30.00 1016 10 16 N/A
2:54 am 02:54 Partly Cloudy 73 22.8 66 18.9 79 79 NNE 6 9 30.00 1016 10 16 N/A
3:54 am 03:54 Cloudy 73 22.8 66 18.9 79 79 N N/A 30.01 1016 10 16 N/A
4:54 am 04:54 Mostly Cloudy 77 25 66 18.9 69 69 SE 5 7 30.01 1016 10 16 N/A
5:54 am 05:54 Mostly Cloudy 82 27.8 66 18.9 58 58 SE 8 13 30.00 1016 10 16 N/A
6:54 am 06:54 Mostly Cloudy with Light Rain 80 26.7 67 19.4 64 64 ESE 6 9 30.02 1017 9 14 0.05 1.27
7:20 am 07:20 Mostly Cloudy with Light Rain 73 22.8 67 19.4 81 81 N N/A 30.03 1017 9 14 0.01 0.25
7:29 am 07:29 Mostly Cloudy with Light Rain 73 22.8 66 18.9 79 79 NNE 5 7 30.03 1017 10 16 0.01 0.25
7:54 am 07:54 Mostly Cloudy with Light Rain 73 22.8 67 19.4 81 81 N N/A 30.05 1018 7 11 0.02 0.51
8:54 am 08:54 Cloudy with Light Rain 83 28.3 67 19.4 59 59 SE 7 11 30.04 1017 10 16 0.03 0.76
9:54 am 09:54 Cloudy N/A N/A N/A ESE 5 7 N/A 10 16 N/A
10:50 am 10:50 Cloudy 72 22 66 19 83 83 ESE 7 11 30.06 1018 10 16 N/A
10:54 am 10:54 Cloudy 72 22.2 67 19.4 84 84 ESE 7 11 30.06 1018 10 16 N/A
11:35 am 11:35 Cloudy 73 22.8 68 20 84 84 SSE 5 7 30.06 1018 10 16 N/A
11:54 am 11:54 Cloudy 74 23.3 68 20 82 82 SSE 6 9 30.06 1018 10 16 N/A
12:10 pm 12:10 Cloudy 74 23.3 68 20 82 82 SSE 6 9 30.06 1018 10 16 N/A
12:50 pm 12:50 Partly Cloudy 75 24 68 20 78 78 SSE 6 9 30.06 1018 10 16 N/A
12:54 pm 12:54 Mostly Cloudy 76 24.4 68 20 77 77 SSE 6 9 30.03 1017 10 16 N/A
1:54 pm 13:54 Mostly Sunny 78 25.6 69 20.6 74 74 S 10 17 30.04 1017 10 16 N/A
2:54 pm 14:54 Mostly Cloudy 78 25.6 67 19.4 69 69 SE 7 11 30.02 1017 10 16 N/A
3:54 pm 15:54 Mostly Cloudy 81 27.2 68 20 65 65 S 7 11 30.01 1016 10 16 N/A
4:54 pm 16:54 Mostly Cloudy 79 26.1 68 20 69 69 S 6 9 29.99 1016 10 16 N/A
5:54 pm 17:54 Partly Cloudy 80 26.7 69 20.6 69 69 N N/A 29.99 1016 10 16 N/A
6:54 pm 18:54 Mostly Sunny 78 25.6 69 20.6 74 74 SSE 5 7 29.99 1016 10 16 N/A
7:54 pm 19:54 Sunny 77 25 69 20.6 77 77 ESE 6 9 30.00 1016 10 16 N/A
8:54 pm 20:54 Mostly Clear with Light Rain 75 23.9 70 21.1 84 84 SSE 12 19 30.01 1016 10 16 N/A
9:54 pm 21:54 Mostly Cloudy with Rain 72 22.2 70 21.1 94 94 S 8 13 30.06 1018 5 8 0.05 1.27
10:54 pm 22:54 Mostly Cloudy with Light Rain 71 21.7 69 20.6 94 94 N N/A 30.04 1017 9 14 0.14 3.56
11:11 pm 23:11 Mostly Cloudy with Nearby Thunderstorms 71 21.7 69 20.6 94 94 S 7 11 30.06 1018 4 6 0.01 0.25
11:32 pm 23:32 Cloudy with Heavy Rain 71 21.7 69 20.6 94 94 SE 12 19 30.03 1017 3 4 0.15 3.81
11:35 pm 23:35 Cloudy with Rain 71 21.7 69 20.6 94 94 ESE 12 19 30.03 1017 3 5 0.16 4.06
11:54 pm 23:54 Cloudy with Light Rain 71 21.7 69 20.6 94 94 ESE 9 15 30.03 1017 10 16 0.18 4.57

Powered by AerisWeather